Time,TemperatureF,DewpointF,PressureIn,WindDirection,WindDirectionDegrees,WindSpeedMPH,WindSpeedGustMPH,Humidity,HourlyPrecipIn,Conditions,Clouds,dailyrainin,SoftwareType,DateUTC
2013-03-12 00:03:00,46.0,44.7,30.08,SW,220,0.0,0.0,95,0.00,,---,0.00,VWS V14.01,2013-03-12 07:03:00,
2013-03-12 00:08:00,46.0,44.7,30.08,SW,220,0.0,0.0,95,0.00,,---,0.00,VWS V14.01,2013-03-12 07:08:00,
2013-03-12 00:13:00,46.1,44.8,30.08,SW,220,0.0,0.0,95,0.00,,---,0.00,VWS V14.01,2013-03-12 07:13:00,
2013-03-12 00:18:00,46.0,44.7,30.09,SW,220,0.0,0.0,95,0.00,,---,0.00,VWS V14.01,2013-03-12 07:18:00,
2013-03-12 00:23:00,46.0,44.7,30.09,SW,220,0.0,0.0,95,0.00,,---,0.00,VWS V14.01,2013-03-12 07:23:00,
2013-03-12 00:28:00,45.7,44.3,30.09,SW,220,0.0,0.0,95,0.00,,---,0.00,VWS V14.01,2013-03-12 07:28:00,
2013-03-12 00:33:00,45.7,44.3,30.09,SW,220,0.0,0.0,95,0.00,,---,0.00,VWS V14.01,2013-03-12 07:33:00,
2013-03-12 00:38:00,45.7,44.3,30.09,SW,220,0.0,0.0,95,0.00,,---,0.00,VWS V14.01,2013-03-12 07:38:00,
2013-03-12 00:43:00,45.4,44.0,30.09,SW,220,0.0,0.0,95,0.00,,---,0.00,VWS V14.01,2013-03-12 07:43:00,
2013-03-12 00:49:00,45.2,43.9,30.09,SW,220,0.0,0.0,95,0.00,,---,0.00,VWS V14.01,2013-03-12 07:49:00,
2013-03-12 00:54:00,45.1,43.8,30.09,SW,220,0.0,0.0,95,0.00,,---,0.00,VWS V14.01,2013-03-12 07:54:00,
2013-03-12 00:59:00,44.9,43.6,30.09,SW,220,0.0,0.0,95,0.00,,---,0.00,VWS V14.01,2013-03-12 07:59:00,
2013-03-12 01:04:00,44.8,43.5,30.08,SW,220,0.0,0.0,95,0.00,,---,0.00,VWS V14.01,2013-03-12 08:04:00,
2013-03-12 01:09:00,44.6,43.3,30.08,SW,220,0.0,0.0,95,0.00,,---,0.00,VWS V14.01,2013-03-12 08:09:00,
2013-03-12 01:14:00,44.6,43.3,30.08,SW,220,0.0,0.0,95,0.00,,---,0.00,VWS V14.01,2013-03-12 08:14:00,
2013-03-12 01:19:00,44.6,43.3,30.08,SW,220,0.0,0.0,95,0.00,,---,0.00,VWS V14.01,2013-03-12 08:19:00,
2013-03-12 01:24:00,44.5,43.2,30.08,SW,220,0.0,0.0,95,0.00,,---,0.00,VWS V14.01,2013-03-12 08:24:00,
2013-03-12 01:29:00,44.5,43.2,30.08,SW,220,0.0,0.0,95,0.00,,---,0.00,VWS V14.01,2013-03-12 08:29:00,
2013-03-12 01:34:00,44.3,43.0,30.09,SW,220,0.0,0.0,95,0.00,,---,0.00,VWS V14.01,2013-03-12 08:34:00,
2013-03-12 01:39:00,44.3,43.0,30.09,SW,220,0.0,0.0,95,0.00,,---,0.00,VWS V14.01,2013-03-12 08:39:00,
2013-03-12 01:44:00,44.2,42.9,30.09,SW,220,0.0,0.0,95,0.00,,---,0.00,VWS V14.01,2013-03-12 08:44:00,
2013-03-12 01:49:00,44.2,42.9,30.08,SW,220,0.0,0.0,95,0.00,,---,0.00,VWS V14.01,2013-03-12 08:49:00,
2013-03-12 01:54:00,44.1,42.8,30.08,SW,220,0.0,0.0,95,0.00,,---,0.00,VWS V14.01,2013-03-12 08:54:00,
2013-03-12 01:59:00,43.9,42.6,30.08,SW,220,0.0,0.0,95,0.00,,---,0.00,VWS V14.01,2013-03-12 08:59:00,
2013-03-12 02:04:00,43.8,42.5,30.08,SW,220,0.0,0.0,95,0.00,,---,0.00,VWS V14.01,2013-03-12 09:04:00,
2013-03-12 02:09:00,43.8,42.5,30.08,SW,220,0.0,0.0,95,0.00,,---,0.00,VWS V14.01,2013-03-12 09:09:00,
2013-03-12 02:14:00,44.1,43.0,30.08,SW,220,0.0,0.0,96,0.00,,---,0.00,VWS V14.01,2013-03-12 09:14:00,
2013-03-12 02:19:00,44.1,43.0,30.09,SW,220,0.0,0.0,96,0.00,,---,0.00,VWS V14.01,2013-03-12 09:19:00,
2013-03-12 02:24:00,44.1,43.0,30.09,SW,220,0.0,0.0,96,0.00,,---,0.00,VWS V14.01,2013-03-12 09:24:00,
2013-03-12 02:29:00,44.1,43.0,30.09,SW,220,0.0,0.0,96,0.00,,---,0.00,VWS V14.01,2013-03-12 09:29:00,
2013-03-12 02:34:00,43.9,42.8,30.09,SW,220,0.0,0.0,96,0.00,,---,0.00,VWS V14.01,2013-03-12 09:34:00,
2013-03-12 02:39:00,44.1,43.0,30.09,SW,220,0.0,0.0,96,0.00,,---,0.00,VWS V14.01,2013-03-12 09:39:00,
2013-03-12 02:44:00,44.2,43.1,30.09,SW,220,0.0,0.0,96,0.00,,---,0.00,VWS V14.01,2013-03-12 09:44:00,
2013-03-12 02:49:00,44.1,43.0,30.09,SW,220,0.0,0.0,96,0.00,,---,0.00,VWS V14.01,2013-03-12 09:49:00,
2013-03-12 02:54:00,43.9,42.8,30.09,SW,220,0.0,0.0,96,0.00,,---,0.00,VWS V14.01,2013-03-12 09:54:00,
2013-03-12 02:59:00,43.8,42.7,30.09,SW,220,0.0,0.0,96,0.00,,---,0.00,VWS V14.01,2013-03-12 09:59:00,
2013-03-12 03:04:00,43.5,42.2,30.08,SW,220,0.0,0.0,95,0.00,,---,0.00,VWS V14.01,2013-03-12 10:04:00,
2013-03-12 03:10:00,43.3,42.2,30.08,SW,220,0.0,0.0,96,0.00,,---,0.00,VWS V14.01,2013-03-12 10:10:00,
2013-03-12 03:15:00,43.1,42.0,30.08,SW,220,0.0,0.0,96,0.00,,---,0.00,VWS V14.01,2013-03-12 10:15:00,
2013-03-12 03:20:00,42.9,41.8,30.08,SW,220,0.0,0.0,96,0.00,,---,0.00,VWS V14.01,2013-03-12 10:20:00,
2013-03-12 03:25:00,43.1,42.0,30.08,SW,220,0.0,0.0,96,0.00,,---,0.00,VWS V14.01,2013-03-12 10:25:00,
2013-03-12 03:30:00,42.9,41.8,30.08,SW,220,0.0,0.0,96,0.00,,---,0.00,VWS V14.01,2013-03-12 10:30:00,
2013-03-12 03:35:00,42.8,41.7,30.08,SW,220,0.0,0.0,96,0.00,,---,0.00,VWS V14.01,2013-03-12 10:35:00,
2013-03-12 03:40:00,42.6,41.3,30.08,SW,220,0.0,0.0,95,0.00,,---,0.00,VWS V14.01,2013-03-12 10:40:00,
2013-03-12 03:45:00,42.3,41.2,30.08,SW,220,0.0,0.0,96,0.00,,---,0.00,VWS V14.01,2013-03-12 10:45:00,
2013-03-12 03:50:00,42.2,41.1,30.07,SW,220,0.0,0.0,96,0.00,,---,0.00,VWS V14.01,2013-03-12 10:50:00,
2013-03-12 03:55:00,42.1,41.0,30.07,SW,220,0.0,0.0,96,0.00,,---,0.00,VWS V14.01,2013-03-12 10:55:00,
2013-03-12 04:00:00,41.9,40.8,30.07,SW,220,0.0,0.0,96,0.00,,---,0.00,VWS V14.01,2013-03-12 11:00:00,
2013-03-12 04:05:00,41.8,40.8,30.07,SW,220,0.0,0.0,96,0.00,,---,0.00,VWS V14.01,2013-03-12 11:05:00,
2013-03-12 04:10:00,41.8,40.8,30.07,SW,220,0.0,0.0,96,0.00,,---,0.00,VWS V14.01,2013-03-12 11:10:00,
2013-03-12 04:15:00,41.8,40.8,30.07,SW,220,0.0,0.0,96,0.00,,---,0.00,VWS V14.01,2013-03-12 11:15:00,
2013-03-12 04:20:00,42.1,41.0,30.07,SW,220,0.0,0.0,96,0.00,,---,0.00,VWS V14.01,2013-03-12 11:20:00,
2013-03-12 04:25:00,42.3,41.2,30.07,SW,220,0.0,0.0,96,0.00,,---,0.00,VWS V14.01,2013-03-12 11:25:00,
2013-03-12 04:30:00,42.5,41.4,30.07,SW,220,0.0,0.0,96,0.00,,---,0.00,VWS V14.01,2013-03-12 11:30:00,
2013-03-12 04:35:00,42.9,41.8,30.07,SW,220,0.0,0.0,96,0.00,,---,0.00,VWS V14.01,2013-03-12 11:35:00,
2013-03-12 04:40:00,43.1,42.0,30.07,SW,220,0.0,-999.0,96,-99.99,,,0.00,weatherlink.com 1.10,2013-03-12 11:40:00,
2013-03-12 04:45:00,43.3,42.2,30.07,SW,220,0.0,0.0,96,0.00,,---,0.00,VWS V14.01,2013-03-12 11:45:00,
2013-03-12 04:51:00,43.5,42.4,30.07,SW,220,0.0,0.0,96,0.00,,---,0.00,VWS V14.01,2013-03-12 11:51:00,
2013-03-12 04:56:00,43.6,42.5,30.07,SW,220,0.0,0.0,96,0.00,,---,0.00,VWS V14.01,2013-03-12 11:56:00,
2013-03-12 05:01:00,43.6,42.5,30.07,SW,220,0.0,0.0,96,0.00,,---,0.00,VWS V14.01,2013-03-12 12:01:00,
2013-03-12 05:06:00,43.8,42.7,30.07,SW,220,0.0,0.0,96,0.00,,---,0.00,VWS V14.01,2013-03-12 12:06:00,
2013-03-12 05:11:00,43.9,43.1,30.07,SW,220,0.0,0.0,97,0.00,,---,0.00,VWS V14.01,2013-03-12 12:11:00,
2013-03-12 05:16:00,44.1,43.3,30.07,SW,220,0.0,0.0,97,0.00,,---,0.00,VWS V14.01,2013-03-12 12:16:00,
2013-03-12 05:21:00,44.2,43.4,30.07,SW,220,0.0,0.0,97,0.00,,---,0.00,VWS V14.01,2013-03-12 12:21:00,
2013-03-12 05:26:00,44.2,43.4,30.07,SW,220,0.0,0.0,97,0.00,,---,0.00,VWS V14.01,2013-03-12 12:26:00,
2013-03-12 05:31:00,44.3,43.5,30.07,SW,220,0.0,0.0,97,0.00,,---,0.00,VWS V14.01,2013-03-12 12:31:00,
2013-03-12 05:36:00,44.3,43.5,30.08,SW,220,0.0,0.0,97,0.00,,---,0.00,VWS V14.01,2013-03-12 12:36:00,
2013-03-12 05:41:00,44.2,43.4,30.08,SW,220,0.0,0.0,97,0.00,,---,0.00,VWS V14.01,2013-03-12 12:41:00,
2013-03-12 05:46:00,44.1,43.0,30.07,SW,220,0.0,-999.0,97,-99.99,,,0.00,weatherlink.com 1.10,2013-03-12 12:46:00,
2013-03-12 05:51:00,44.1,43.3,30.07,SW,220,0.0,0.0,97,0.00,,---,0.00,VWS V14.01,2013-03-12 12:51:00,
2013-03-12 05:57:00,44.1,43.3,30.07,SW,220,0.0,0.0,97,0.00,,---,0.00,VWS V14.01,2013-03-12 12:57:00,
2013-03-12 06:02:00,43.9,43.1,30.07,SW,220,0.0,0.0,97,0.00,,---,0.00,VWS V14.01,2013-03-12 13:02:00,
2013-03-12 06:07:00,43.9,43.1,30.07,SW,220,0.0,0.0,97,0.00,,---,0.00,VWS V14.01,2013-03-12 13:07:00,
2013-03-12 06:12:00,43.8,43.0,30.07,SW,220,0.0,0.0,97,0.00,,---,0.00,VWS V14.01,2013-03-12 13:12:00,
2013-03-12 06:17:00,43.6,42.5,30.07,SW,220,0.0,0.0,96,0.00,,---,0.00,VWS V14.01,2013-03-12 13:17:00,
2013-03-12 06:22:00,43.2,42.1,30.07,SW,220,0.0,0.0,96,0.00,,---,0.00,VWS V14.01,2013-03-12 13:22:00,
2013-03-12 06:27:00,42.8,41.7,30.07,SW,220,0.0,0.0,96,0.00,,---,0.00,VWS V14.01,2013-03-12 13:27:00,
2013-03-12 06:32:00,42.5,41.7,30.07,SW,220,0.0,0.0,97,0.00,,---,0.00,VWS V14.01,2013-03-12 13:32:00,
2013-03-12 06:37:00,42.5,41.7,30.07,SW,220,0.0,0.0,97,0.00,,---,0.00,VWS V14.01,2013-03-12 13:37:00,
2013-03-12 06:42:00,42.6,41.8,30.07,SW,220,0.0,0.0,97,0.00,,---,0.00,VWS V14.01,2013-03-12 13:42:00,
2013-03-12 06:47:00,42.5,41.7,30.07,SW,220,0.0,0.0,97,0.00,,---,0.00,VWS V14.01,2013-03-12 13:47:00,
2013-03-12 06:52:00,42.5,41.7,30.07,SW,220,0.0,0.0,97,0.00,,---,0.00,VWS V14.01,2013-03-12 13:52:00,
2013-03-12 06:57:00,42.3,41.5,30.07,SW,220,0.0,0.0,97,0.00,,---,0.00,VWS V14.01,2013-03-12 13:57:00,
2013-03-12 07:02:00,42.2,41.4,30.06,SW,220,0.0,0.0,97,0.00,,---,0.00,VWS V14.01,2013-03-12 14:02:00,
2013-03-12 07:07:00,42.1,41.3,30.06,SW,220,0.0,0.0,97,0.00,,---,0.00,VWS V14.01,2013-03-12 14:07:00,
2013-03-12 07:12:00,41.8,41.0,30.06,SW,220,0.0,0.0,97,0.00,,---,0.00,VWS V14.01,2013-03-12 14:12:00,
2013-03-12 07:17:00,41.6,40.8,30.07,SW,220,0.0,0.0,97,0.00,,---,0.00,VWS V14.01,2013-03-12 14:17:00,
2013-03-12 07:22:00,41.6,40.8,30.07,SW,220,0.0,0.0,97,0.00,,---,0.00,VWS V14.01,2013-03-12 14:22:00,
2013-03-12 07:27:00,41.8,41.0,30.07,SW,220,0.0,0.0,97,0.00,,---,0.00,VWS V14.01,2013-03-12 14:27:00,
2013-03-12 07:33:00,41.9,41.1,30.07,SW,220,0.0,0.0,97,0.00,,---,0.00,VWS V14.01,2013-03-12 14:33:00,
2013-03-12 07:38:00,42.1,41.3,30.07,SW,220,0.0,0.0,97,0.00,,---,0.00,VWS V14.01,2013-03-12 14:38:00,
2013-03-12 07:43:00,42.1,41.3,30.07,SW,220,0.0,0.0,97,0.00,,---,0.00,VWS V14.01,2013-03-12 14:43:00,
2013-03-12 07:48:00,41.9,41.1,30.07,SW,220,0.0,0.0,97,0.00,,---,0.00,VWS V14.01,2013-03-12 14:48:00,
2013-03-12 07:53:00,41.8,41.0,30.07,SW,220,0.0,0.0,97,0.00,,---,0.00,VWS V14.01,2013-03-12 14:53:00,
2013-03-12 07:58:00,41.9,41.1,30.07,SW,220,0.0,1.0,97,0.00,,---,0.00,VWS V14.01,2013-03-12 14:58:00,
2013-03-12 08:03:00,42.1,41.3,30.07,SW,220,0.0,0.0,97,0.00,,---,0.00,VWS V14.01,2013-03-12 15:03:00,
2013-03-12 08:08:00,42.3,41.8,30.07,SW,220,0.0,1.0,98,0.00,,---,0.00,VWS V14.01,2013-03-12 15:08:00,
2013-03-12 08:13:00,42.6,42.1,30.07,SW,220,0.0,1.0,98,0.00,,---,0.00,VWS V14.01,2013-03-12 15:13:00,
2013-03-12 08:18:00,42.8,42.3,30.07,SW,220,0.0,1.0,98,0.00,,---,0.00,VWS V14.01,2013-03-12 15:18:00,
2013-03-12 08:23:00,43.1,42.6,30.07,SW,220,0.0,1.0,98,0.00,,---,0.00,VWS V14.01,2013-03-12 15:23:00,
2013-03-12 08:28:00,43.3,42.8,30.07,SW,220,0.0,1.0,98,0.00,,---,0.00,VWS V14.01,2013-03-12 15:28:00,
2013-03-12 08:33:00,43.5,43.0,30.08,SW,220,0.0,0.0,98,0.00,,---,0.00,VWS V14.01,2013-03-12 15:33:00,
2013-03-12 08:38:00,43.6,43.1,30.08,SW,220,0.0,0.0,98,0.00,,---,0.00,VWS V14.01,2013-03-12 15:38:00,
2013-03-12 08:43:00,43.9,43.4,30.08,SW,220,0.0,0.0,98,0.00,,---,0.00,VWS V14.01,2013-03-12 15:43:00,
2013-03-12 08:48:00,44.1,43.6,30.08,SW,220,0.0,0.0,98,0.00,,---,0.00,VWS V14.01,2013-03-12 15:48:00,
2013-03-12 08:53:00,44.1,43.6,30.08,SW,220,0.0,0.0,98,0.00,,---,0.00,VWS V14.01,2013-03-12 15:53:00,
2013-03-12 08:59:00,44.5,44.0,30.08,SW,220,0.0,0.0,98,0.00,,---,0.00,VWS V14.01,2013-03-12 15:59:00,
2013-03-12 09:04:00,44.9,44.4,30.08,SW,220,0.0,0.0,98,0.00,,---,0.00,VWS V14.01,2013-03-12 16:04:00,
2013-03-12 09:08:00,45.4,44.9,30.08,SW,220,0.0,0.0,98,0.00,,---,0.00,VWS V14.01,2013-03-12 16:08:00,
2013-03-12 09:14:00,45.7,45.2,30.08,SW,220,0.0,0.0,98,0.00,,---,0.00,VWS V14.01,2013-03-12 16:14:00,
2013-03-12 09:19:00,46.1,45.6,30.08,SW,220,0.0,0.0,98,0.00,,---,0.00,VWS V14.01,2013-03-12 16:19:00,
2013-03-12 09:24:00,46.4,45.9,30.08,SW,220,0.0,1.0,98,0.00,,---,0.00,VWS V14.01,2013-03-12 16:24:00,
2013-03-12 09:29:00,46.8,46.3,30.08,SW,220,0.0,1.0,98,0.00,,---,0.00,VWS V14.01,2013-03-12 16:29:00,
2013-03-12 09:34:00,47.1,46.6,30.09,SW,220,0.0,0.0,98,0.00,,---,0.00,VWS V14.01,2013-03-12 16:34:00,
2013-03-12 09:39:00,47.3,46.8,30.09,SW,220,0.0,1.0,98,0.00,,---,0.00,VWS V14.01,2013-03-12 16:39:00,
2013-03-12 09:44:00,47.4,46.9,30.09,WSW,249,0.0,1.0,98,0.00,,---,0.00,VWS V14.01,2013-03-12 16:44:00,
2013-03-12 09:49:00,47.7,47.2,30.09,SE,136,0.0,1.0,98,0.00,,---,0.00,VWS V14.01,2013-03-12 16:49:00,
2013-03-12 09:54:00,48.5,48.0,30.09,SE,136,0.0,1.0,98,0.00,,---,0.00,VWS V14.01,2013-03-12 16:54:00,
2013-03-12 09:59:00,49.4,48.9,30.09,SE,136,0.0,1.0,98,0.00,,---,0.00,VWS V14.01,2013-03-12 16:59:00,
2013-03-12 10:04:00,49.6,48.8,30.09,SE,136,0.0,0.0,97,0.00,,---,0.00,VWS V14.01,2013-03-12 17:04:00,
2013-03-12 10:09:00,49.8,49.0,30.09,SSE,163,0.0,0.0,97,0.00,,---,0.00,VWS V14.01,2013-03-12 17:09:00,
2013-03-12 10:14:00,50.7,49.9,30.09,SSE,163,0.0,0.0,97,0.00,,---,0.00,VWS V14.01,2013-03-12 17:14:00,
2013-03-12 10:19:00,51.4,50.6,30.08,South,169,0.0,0.0,97,0.00,,---,0.00,VWS V14.01,2013-03-12 17:19:00,
2013-03-12 10:24:00,52.2,51.1,30.08,South,169,0.0,0.0,96,0.00,,---,0.00,VWS V14.01,2013-03-12 17:24:00,
2013-03-12 10:29:00,52.9,51.2,30.08,South,184,0.0,0.0,94,0.00,,---,0.00,VWS V14.01,2013-03-12 17:29:00,
2013-03-12 10:35:00,53.3,51.0,30.08,SSW,198,0.0,0.0,92,0.00,,---,0.00,VWS V14.01,2013-03-12 17:35:00,
2013-03-12 10:40:00,53.6,50.4,30.08,SSW,198,0.0,0.0,89,0.00,,---,0.00,VWS V14.01,2013-03-12 17:40:00,
2013-03-12 10:45:00,54.1,50.6,30.08,SSW,198,0.0,0.0,88,0.00,,---,0.00,VWS V14.01,2013-03-12 17:45:00,
2013-03-12 10:50:00,55.3,51.2,30.08,SSW,200,0.0,0.0,86,0.00,,---,0.00,VWS V14.01,2013-03-12 17:50:00,
2013-03-12 10:55:00,56.3,50.9,30.08,SSW,200,0.0,1.0,82,0.00,,---,0.00,VWS V14.01,2013-03-12 17:55:00,
2013-03-12 11:00:00,57.0,50.6,30.08,SSW,200,0.0,1.0,79,0.00,,---,0.00,VWS V14.01,2013-03-12 18:00:00,
2013-03-12 11:05:00,58.0,50.8,30.08,SSW,206,0.0,0.0,77,0.00,,---,0.00,VWS V14.01,2013-03-12 18:05:00,
2013-03-12 11:10:00,58.7,50.5,30.08,SSW,208,0.0,0.0,74,0.00,,---,0.00,VWS V14.01,2013-03-12 18:10:00,
2013-03-12 11:15:00,59.8,50.8,30.08,SSW,208,0.0,0.0,72,0.00,,---,0.00,VWS V14.01,2013-03-12 18:15:00,
2013-03-12 11:20:00,60.9,50.7,30.08,SSW,208,0.0,0.0,69,0.00,,---,0.00,VWS V14.01,2013-03-12 18:20:00,
2013-03-12 11:25:00,61.3,50.3,30.08,SSW,208,0.0,0.0,67,0.00,,---,0.00,VWS V14.01,2013-03-12 18:25:00,
2013-03-12 11:30:00,62.0,50.5,30.08,SSW,208,0.0,0.0,66,0.00,,---,0.00,VWS V14.01,2013-03-12 18:30:00,
2013-03-12 11:35:00,62.7,51.2,30.08,SSW,208,0.0,0.0,66,0.00,,---,0.00,VWS V14.01,2013-03-12 18:35:00,
2013-03-12 11:40:00,63.7,50.9,30.08,ENE,62,0.0,0.0,63,0.00,,---,0.00,VWS V14.01,2013-03-12 18:40:00,
2013-03-12 11:45:00,64.5,51.2,30.08,ENE,62,0.0,0.0,62,0.00,,---,0.00,VWS V14.01,2013-03-12 18:45:00,
2013-03-12 11:50:00,65.0,50.3,30.07,ENE,62,0.0,0.0,59,0.00,,---,0.00,VWS V14.01,2013-03-12 18:50:00,
2013-03-12 11:55:00,65.8,51.5,30.07,NNE,32,0.0,0.0,60,0.00,,---,0.00,VWS V14.01,2013-03-12 18:55:00,
2013-03-12 12:00:00,66.4,51.7,30.07,NNE,27,0.0,0.0,59,0.00,,---,0.00,VWS V14.01,2013-03-12 19:00:00,
2013-03-12 12:05:00,66.9,50.2,30.07,NNE,27,0.0,0.0,55,0.00,,---,0.00,VWS V14.01,2013-03-12 19:05:00,
2013-03-12 12:10:00,67.8,52.0,30.07,NW,317,0.0,0.0,57,0.00,,---,0.00,VWS V14.01,2013-03-12 19:10:00,
2013-03-12 12:15:00,68.6,52.3,30.07,NW,317,0.0,1.0,56,0.00,,---,0.00,VWS V14.01,2013-03-12 19:15:00,
2013-03-12 12:20:00,69.3,52.0,30.06,WNW,294,0.0,1.0,54,0.00,,---,0.00,VWS V14.01,2013-03-12 19:20:00,
2013-03-12 12:26:00,69.8,51.9,30.06,NW,325,0.0,1.0,53,0.00,,---,0.00,VWS V14.01,2013-03-12 19:26:00,
2013-03-12 12:31:00,70.1,51.7,30.06,NW,325,0.0,1.0,52,0.00,,---,0.00,VWS V14.01,2013-03-12 19:31:00,
2013-03-12 12:36:00,70.9,52.4,30.05,NW,325,0.0,0.0,52,0.00,,---,0.00,VWS V14.01,2013-03-12 19:36:00,
2013-03-12 12:41:00,71.5,53.0,30.05,WNW,286,0.0,0.0,52,0.00,,---,0.00,VWS V14.01,2013-03-12 19:41:00,
2013-03-12 12:46:00,72.3,52.1,30.05,NNW,340,0.0,3.0,49,0.00,,---,0.00,VWS V14.01,2013-03-12 19:46:00,
2013-03-12 12:51:00,72.3,54.7,30.05,West,271,2.0,7.0,54,0.00,,---,0.00,VWS V14.01,2013-03-12 19:51:00,
2013-03-12 12:56:00,71.6,54.6,30.05,West,270,8.0,8.0,55,0.00,,---,0.00,VWS V14.01,2013-03-12 19:56:00,
2013-03-12 13:02:00,69.8,53.9,30.05,WNW,294,0.0,8.0,57,0.00,,---,0.00,VWS V14.01,2013-03-12 20:02:00,
2013-03-12 13:07:00,68.9,53.5,30.05,West,271,1.0,6.0,58,0.00,,---,0.00,VWS V14.01,2013-03-12 20:07:00,
2013-03-12 13:12:00,68.4,53.5,30.05,WNW,282,2.0,6.0,59,0.00,,---,0.00,VWS V14.01,2013-03-12 20:12:00,
2013-03-12 13:17:00,68.6,53.7,30.05,WNW,287,2.0,6.0,59,0.00,,---,0.00,VWS V14.01,2013-03-12 20:17:00,
2013-03-12 13:22:00,68.9,53.5,30.05,SW,223,1.0,6.0,58,0.00,,---,0.00,VWS V14.01,2013-03-12 20:22:00,
2013-03-12 13:27:00,69.1,53.2,30.05,WNW,290,0.0,6.0,57,0.00,,---,0.00,VWS V14.01,2013-03-12 20:27:00,
2013-03-12 13:32:00,69.4,53.5,30.05,WNW,290,0.0,6.0,57,0.00,,---,0.00,VWS V14.01,2013-03-12 20:32:00,
2013-03-12 13:37:00,69.3,53.4,30.05,NW,321,0.0,1.0,57,0.00,,---,0.00,VWS V14.01,2013-03-12 20:37:00,
2013-03-12 13:42:00,68.9,53.1,30.05,NW,325,0.0,4.0,57,0.00,,---,0.00,VWS V14.01,2013-03-12 20:42:00,
2013-03-12 13:47:00,69.1,54.2,30.03,NW,325,0.0,4.0,59,0.00,,---,0.00,VWS V14.01,2013-03-12 20:47:00,
2013-03-12 13:52:00,69.4,54.0,30.03,NW,325,0.0,4.0,58,0.00,,---,0.00,VWS V14.01,2013-03-12 20:52:00,
2013-03-12 13:58:00,69.8,53.9,30.03,SW,236,0.0,4.0,57,0.00,,---,0.00,VWS V14.01,2013-03-12 20:58:00,
2013-03-12 14:03:00,69.8,54.4,30.02,SW,236,0.0,4.0,58,0.00,,---,0.00,VWS V14.01,2013-03-12 21:03:00,
2013-03-12 14:08:00,70.3,53.9,30.02,WSW,247,0.0,3.0,56,0.00,,---,0.00,VWS V14.01,2013-03-12 21:08:00,
2013-03-12 14:13:00,70.8,54.3,30.02,WNW,292,0.0,4.0,56,0.00,,---,0.00,VWS V14.01,2013-03-12 21:13:00,
2013-03-12 14:18:00,71.6,54.1,30.02,West,276,0.0,4.0,54,0.00,,---,0.00,VWS V14.01,2013-03-12 21:18:00,
2013-03-12 14:23:00,72.1,55.1,30.02,West,275,0.0,5.0,55,0.00,,---,0.00,VWS V14.01,2013-03-12 21:23:00,
2013-03-12 14:28:00,72.3,54.7,30.02,North,349,1.0,5.0,54,0.00,,---,0.00,VWS V14.01,2013-03-12 21:28:00,
2013-03-12 14:33:00,72.1,54.0,30.02,North,5,0.0,0.0,53,0.00,,---,0.00,VWS V14.01,2013-03-12 21:33:00,
2013-03-12 14:38:00,71.6,54.1,30.02,SSW,198,0.0,2.0,54,0.00,,---,0.00,VWS V14.01,2013-03-12 21:38:00,
2013-03-12 14:43:00,71.8,54.8,30.02,WNW,293,0.0,3.0,55,0.00,,---,0.00,VWS V14.01,2013-03-12 21:43:00,
2013-03-12 14:48:00,72.1,54.0,30.02,WNW,296,0.0,4.0,53,0.00,,---,0.00,VWS V14.01,2013-03-12 21:48:00,
2013-03-12 14:53:00,72.3,54.2,30.02,West,281,4.0,4.0,53,0.00,,---,0.00,VWS V14.01,2013-03-12 21:53:00,
2013-03-12 14:58:00,71.8,54.3,30.02,WNW,292,0.0,4.0,54,0.00,,---,0.00,VWS V14.01,2013-03-12 21:58:00,
2013-03-12 15:03:00,71.8,53.8,30.02,West,279,0.0,0.0,53,0.00,,---,0.00,VWS V14.01,2013-03-12 22:03:00,
2013-03-12 15:08:00,72.1,54.6,30.02,WNW,288,0.0,5.0,54,0.00,,---,0.00,VWS V14.01,2013-03-12 22:08:00,
2013-03-12 15:13:00,72.1,54.6,30.02,WSW,255,0.0,5.0,54,0.00,,---,0.00,VWS V14.01,2013-03-12 22:13:00,
2013-03-12 15:18:00,72.3,54.7,30.01,West,259,0.0,5.0,54,0.00,,---,0.00,VWS V14.01,2013-03-12 22:18:00,
2013-03-12 15:23:00,72.5,54.9,30.01,WNW,284,0.0,5.0,54,0.00,,---,0.00,VWS V14.01,2013-03-12 22:23:00,
2013-03-12 15:28:00,72.3,54.7,30.01,West,263,1.0,5.0,54,0.00,,---,0.00,VWS V14.01,2013-03-12 22:28:00,
2013-03-12 15:33:00,72.1,55.6,30.01,WSW,254,1.0,3.0,56,0.00,,---,0.00,VWS V14.01,2013-03-12 22:33:00,
2013-03-12 15:38:00,72.1,54.6,30.01,West,276,0.0,4.0,54,0.00,,---,0.00,VWS V14.01,2013-03-12 22:38:00,
2013-03-12 15:44:00,72.5,54.9,30.01,WNW,292,0.0,4.0,54,0.00,,---,0.00,VWS V14.01,2013-03-12 22:44:00,
2013-03-12 15:49:00,72.5,53.9,30.02,WSW,242,0.0,4.0,52,0.00,,---,0.00,VWS V14.01,2013-03-12 22:49:00,
2013-03-12 15:54:00,72.1,54.0,30.02,WSW,244,0.0,5.0,53,0.00,,---,0.00,VWS V14.01,2013-03-12 22:54:00,
2013-03-12 15:59:00,72.1,54.0,30.02,West,264,1.0,5.0,53,0.00,,---,0.00,VWS V14.01,2013-03-12 22:59:00,
2013-03-12 16:04:00,72.1,54.0,30.02,West,268,0.0,2.0,53,0.00,,---,0.00,VWS V14.01,2013-03-12 23:04:00,
2013-03-12 16:09:00,71.8,53.2,30.02,SW,233,0.0,4.0,52,0.00,,---,0.00,VWS V14.01,2013-03-12 23:09:00,
2013-03-12 16:14:00,71.3,54.3,30.02,WNW,292,1.0,4.0,55,0.00,,---,0.00,VWS V14.01,2013-03-12 23:14:00,
2013-03-12 16:19:00,71.3,53.3,30.01,West,274,0.0,4.0,53,0.00,,---,0.00,VWS V14.01,2013-03-12 23:19:00,
2013-03-12 16:24:00,71.5,53.5,30.01,WSW,244,0.0,4.0,53,0.00,,---,0.00,VWS V14.01,2013-03-12 23:24:00,
2013-03-12 16:29:00,71.5,53.5,30.01,SW,220,0.0,4.0,53,0.00,,---,0.00,VWS V14.01,2013-03-12 23:29:00,
2013-03-12 16:34:00,71.1,52.6,30.02,SSW,205,0.0,2.0,52,0.00,,---,0.00,VWS V14.01,2013-03-12 23:34:00,
2013-03-12 16:39:00,70.6,52.1,30.02,SSW,213,0.0,5.0,52,0.00,,---,0.00,VWS V14.01,2013-03-12 23:39:00,
2013-03-12 16:44:00,70.1,51.7,30.02,WSW,244,0.0,5.0,52,0.00,,---,0.00,VWS V14.01,2013-03-12 23:44:00,
2013-03-12 16:49:00,70.1,51.2,30.01,SSW,197,4.0,5.0,51,0.00,,---,0.00,VWS V14.01,2013-03-12 23:49:00,
2013-03-12 16:54:00,69.9,51.5,30.01,SW,229,0.0,5.0,52,0.00,,---,0.00,VWS V14.01,2013-03-12 23:54:00,
2013-03-12 16:59:00,70.1,52.2,30.01,SW,229,0.0,5.0,53,0.00,,---,0.00,VWS V14.01,2013-03-12 23:59:00,
2013-03-12 17:04:00,70.3,52.4,30.02,SW,219,3.0,4.0,53,0.00,,---,0.00,VWS V14.01,2013-03-13 00:04:00,
2013-03-12 17:09:00,69.6,52.2,30.02,SSW,212,0.0,6.0,54,0.00,,---,0.00,VWS V14.01,2013-03-13 00:09:00,
2013-03-12 17:14:00,68.9,52.6,30.02,SW,235,1.0,6.0,56,0.00,,---,0.00,VWS V14.01,2013-03-13 00:14:00,
2013-03-12 17:19:00,68.8,52.0,30.02,SSW,209,0.0,6.0,55,0.00,,---,0.00,VWS V14.01,2013-03-13 00:19:00,
2013-03-12 17:24:00,68.8,52.0,30.02,SSW,210,0.0,6.0,55,0.00,,---,0.00,VWS V14.01,2013-03-13 00:24:00,
2013-03-12 17:30:00,68.6,52.3,30.02,WSW,247,1.0,6.0,56,0.00,,---,0.00,VWS V14.01,2013-03-13 00:30:00,
2013-03-12 17:35:00,68.3,52.5,30.02,SW,227,1.0,3.0,57,0.00,,---,0.00,VWS V14.01,2013-03-13 00:35:00,
2013-03-12 17:40:00,67.6,51.8,30.02,SSW,212,0.0,5.0,57,0.00,,---,0.00,VWS V14.01,2013-03-13 00:40:00,
2013-03-12 17:45:00,66.8,51.6,30.02,SSW,205,2.0,6.0,58,0.00,,---,0.00,VWS V14.01,2013-03-13 00:45:00,
2013-03-12 17:50:00,65.8,50.2,30.02,SW,223,0.0,7.0,57,0.00,,---,0.00,VWS V14.01,2013-03-13 00:50:00,
2013-03-12 17:55:00,65.2,50.1,30.02,SW,217,1.0,7.0,58,0.00,,---,0.00,VWS V14.01,2013-03-13 00:55:00,
2013-03-12 18:00:00,64.8,50.6,30.02,SW,220,0.0,7.0,60,0.00,,---,0.00,VWS V14.01,2013-03-13 01:00:00,
2013-03-12 18:05:00,64.7,51.0,30.02,SW,216,3.0,5.0,61,0.00,,---,0.00,VWS V14.01,2013-03-13 01:05:00,
2013-03-12 18:10:00,63.7,50.9,30.02,SSW,210,0.0,6.0,63,0.00,,---,0.00,VWS V14.01,2013-03-13 01:10:00,
2013-03-12 18:15:00,62.9,50.5,30.02,SW,214,3.0,6.0,64,0.00,,---,0.00,VWS V14.01,2013-03-13 01:15:00,
2013-03-12 18:20:00,62.3,50.8,30.02,SW,227,0.0,6.0,66,0.00,,---,0.00,VWS V14.01,2013-03-13 01:20:00,
2013-03-12 18:25:00,61.6,50.5,30.02,SSW,209,1.0,6.0,67,0.00,,---,0.00,VWS V14.01,2013-03-13 01:25:00,
2013-03-12 18:30:00,61.2,51.0,30.02,SW,231,0.0,6.0,69,0.00,,---,0.00,VWS V14.01,2013-03-13 01:30:00,
2013-03-12 18:35:00,60.9,51.1,30.03,SW,221,0.0,0.0,70,0.00,,---,0.00,VWS V14.01,2013-03-13 01:35:00,
2013-03-12 18:40:00,60.7,51.2,30.03,SW,221,0.0,0.0,71,0.00,,---,0.00,VWS V14.01,2013-03-13 01:40:00,
2013-03-12 18:45:00,60.2,50.8,30.03,SW,221,0.0,0.0,71,0.00,,---,0.00,VWS V14.01,2013-03-13 01:45:00,
2013-03-12 18:50:00,59.8,50.8,30.03,SW,221,0.0,0.0,72,0.00,,---,0.00,VWS V14.01,2013-03-13 01:50:00,
2013-03-12 18:55:00,59.3,50.7,30.03,SW,221,0.0,1.0,73,0.00,,---,0.00,VWS V14.01,2013-03-13 01:55:00,
2013-03-12 19:00:00,58.9,50.6,30.03,SW,221,0.0,1.0,74,0.00,,---,0.00,VWS V14.01,2013-03-13 02:00:00,
2013-03-12 19:05:00,58.4,50.2,30.04,SW,221,0.0,3.0,74,0.00,,---,0.00,VWS V14.01,2013-03-13 02:05:00,
2013-03-12 19:10:00,57.8,49.9,30.04,SW,221,0.0,3.0,75,0.00,,---,0.00,VWS V14.01,2013-03-13 02:10:00,
2013-03-12 19:15:00,57.2,50.1,30.04,SSW,203,2.0,5.0,77,0.00,,---,0.00,VWS V14.01,2013-03-13 02:15:00,
2013-03-12 19:20:00,56.6,49.8,30.05,SW,228,0.0,5.0,78,0.00,,---,0.00,VWS V14.01,2013-03-13 02:20:00,
2013-03-12 19:25:00,56.0,49.6,30.05,SW,228,0.0,5.0,79,0.00,,---,0.00,VWS V14.01,2013-03-13 02:25:00,
2013-03-12 19:30:00,55.6,49.5,30.05,SW,228,0.0,5.0,80,0.00,,---,0.00,VWS V14.01,2013-03-13 02:30:00,
2013-03-12 19:36:00,55.3,49.6,30.05,SW,228,0.0,0.0,81,0.00,,---,0.00,VWS V14.01,2013-03-13 02:36:00,
2013-03-12 19:41:00,54.7,49.3,30.05,SW,228,1.0,5.0,82,0.00,,---,0.00,VWS V14.01,2013-03-13 02:41:00,
2013-03-12 19:46:00,54.2,48.8,30.05,SW,223,3.0,5.0,82,0.00,,---,0.00,VWS V14.01,2013-03-13 02:46:00,
2013-03-12 19:52:00,53.8,48.8,30.05,SW,223,0.0,5.0,83,0.00,,---,0.00,VWS V14.01,2013-03-13 02:52:00,
2013-03-12 19:57:00,53.3,48.3,30.05,SW,223,0.0,5.0,83,0.00,,---,0.00,VWS V14.01,2013-03-13 02:57:00,
2013-03-12 20:02:00,53.1,48.4,30.06,SW,223,0.0,5.0,84,0.00,,---,0.00,VWS V14.01,2013-03-13 03:02:00,
2013-03-12 20:07:00,52.8,48.4,30.06,SW,223,0.0,0.0,85,0.00,,---,0.00,VWS V14.01,2013-03-13 03:07:00,
2013-03-12 20:12:00,52.3,48.2,30.06,SW,223,0.0,0.0,86,0.00,,---,0.00,VWS V14.01,2013-03-13 03:12:00,
2013-03-12 20:17:00,52.2,48.2,30.06,SW,223,0.0,0.0,86,0.00,,---,0.00,VWS V14.01,2013-03-13 03:17:00,
2013-03-12 20:22:00,51.7,47.7,30.06,SW,223,0.0,0.0,86,0.00,,---,0.00,VWS V14.01,2013-03-13 03:22:00,
2013-03-12 20:27:00,51.4,47.7,30.06,SW,223,0.0,0.0,87,0.00,,---,0.00,VWS V14.01,2013-03-13 03:27:00,
2013-03-12 20:32:00,51.0,47.3,30.07,SW,223,0.0,0.0,87,0.00,,---,0.00,VWS V14.01,2013-03-13 03:32:00,
2013-03-12 20:37:00,50.7,47.3,30.07,SW,223,0.0,0.0,88,0.00,,---,0.00,VWS V14.01,2013-03-13 03:37:00,
2013-03-12 20:42:00,50.4,47.3,30.07,SW,223,0.0,0.0,89,0.00,,---,0.00,VWS V14.01,2013-03-13 03:42:00,
2013-03-12 20:47:00,50.2,47.1,30.07,SW,223,0.0,0.0,89,0.00,,---,0.00,VWS V14.01,2013-03-13 03:47:00,
2013-03-12 20:52:00,50.2,47.4,30.07,SW,223,0.0,0.0,90,0.00,,---,0.00,VWS V14.01,2013-03-13 03:52:00,
2013-03-12 20:57:00,50.1,47.3,30.07,SW,223,0.0,0.0,90,0.00,,---,0.00,VWS V14.01,2013-03-13 03:57:00,
2013-03-12 21:00:00,49.9,47.1,30.07,SW,223,0.0,0.0,90,0.00,,---,0.00,VWS V14.01,2013-03-13 04:00:00,
2013-03-12 21:02:00,49.8,47.0,30.07,SW,223,0.0,0.0,90,0.00,,---,0.00,VWS V14.01,2013-03-13 04:02:00,
2013-03-12 21:07:00,49.5,46.7,30.07,SW,223,0.0,0.0,90,0.00,,---,0.00,VWS V14.01,2013-03-13 04:07:00,
2013-03-12 21:12:00,49.4,46.9,30.07,SW,223,0.0,0.0,91,0.00,,---,0.00,VWS V14.01,2013-03-13 04:12:00,
2013-03-12 21:18:00,49.2,46.7,30.07,SW,223,0.0,0.0,91,0.00,,---,0.00,VWS V14.01,2013-03-13 04:18:00,
2013-03-12 21:23:00,49.2,46.7,30.07,SW,223,0.0,0.0,91,0.00,,---,0.00,VWS V14.01,2013-03-13 04:23:00,
2013-03-12 21:28:00,49.1,46.6,30.07,SW,223,0.0,0.0,91,0.00,,---,0.00,VWS V14.01,2013-03-13 04:28:00,
2013-03-12 21:33:00,48.9,46.7,30.07,SW,223,0.0,0.0,92,0.00,,---,0.00,VWS V14.01,2013-03-13 04:33:00,
2013-03-12 21:38:00,48.8,46.6,30.07,SW,223,0.0,0.0,92,0.00,,---,0.00,VWS V14.01,2013-03-13 04:38:00,
2013-03-12 21:43:00,48.6,46.4,30.07,SW,223,0.0,0.0,92,0.00,,---,0.00,VWS V14.01,2013-03-13 04:43:00,
2013-03-12 21:48:00,48.6,46.4,30.07,SW,223,0.0,0.0,92,0.00,,---,0.00,VWS V14.01,2013-03-13 04:48:00,
2013-03-12 21:53:00,48.6,46.4,30.07,SW,223,0.0,0.0,92,0.00,,---,0.00,VWS V14.01,2013-03-13 04:53:00,
2013-03-12 21:58:00,48.3,46.4,30.07,SW,223,0.0,0.0,93,0.00,,---,0.00,VWS V14.01,2013-03-13 04:58:00,
2013-03-12 22:03:00,48.2,46.3,30.08,SW,223,0.0,0.0,93,0.00,,---,0.00,VWS V14.01,2013-03-13 05:03:00,
2013-03-12 22:08:00,48.2,46.3,30.08,SW,223,0.0,0.0,93,0.00,,---,0.00,VWS V14.01,2013-03-13 05:08:00,
2013-03-12 22:13:00,48.2,46.3,30.08,SW,223,0.0,0.0,93,0.00,,---,0.00,VWS V14.01,2013-03-13 05:13:00,
2013-03-12 22:18:00,48.0,46.1,30.08,SW,223,0.0,0.0,93,0.00,,---,0.00,VWS V14.01,2013-03-13 05:18:00,
2013-03-12 22:23:00,48.0,46.1,30.08,SW,223,0.0,0.0,93,0.00,,---,0.00,VWS V14.01,2013-03-13 05:23:00,
2013-03-12 22:28:00,48.0,46.4,30.08,SW,223,0.0,0.0,94,0.00,,---,0.00,VWS V14.01,2013-03-13 05:28:00,
2013-03-12 22:33:00,47.9,46.3,30.08,SW,223,0.0,0.0,94,0.00,,---,0.00,VWS V14.01,2013-03-13 05:33:00,
2013-03-12 22:38:00,47.7,46.1,30.08,SW,223,0.0,0.0,94,0.00,,---,0.00,VWS V14.01,2013-03-13 05:38:00,
2013-03-12 22:43:00,47.7,46.1,30.08,SW,223,0.0,0.0,94,0.00,,---,0.00,VWS V14.01,2013-03-13 05:43:00,
2013-03-12 22:49:00,47.6,46.0,30.08,SW,223,0.0,0.0,94,0.00,,---,0.00,VWS V14.01,2013-03-13 05:49:00,
2013-03-12 22:54:00,47.6,46.0,30.08,SW,223,0.0,0.0,94,0.00,,---,0.00,VWS V14.01,2013-03-13 05:54:00,
2013-03-12 22:59:00,47.6,46.0,30.08,SW,223,0.0,0.0,94,0.00,,---,0.00,VWS V14.01,2013-03-13 05:59:00,
2013-03-12 23:04:00,47.6,46.0,30.08,SW,223,0.0,0.0,94,0.00,,---,0.00,VWS V14.01,2013-03-13 06:04:00,
2013-03-12 23:09:00,47.6,46.2,30.08,SW,223,0.0,0.0,95,0.00,,---,0.00,VWS V14.01,2013-03-13 06:09:00,
2013-03-12 23:14:00,47.6,46.2,30.08,SW,223,0.0,0.0,95,0.00,,---,0.00,VWS V14.01,2013-03-13 06:14:00,
2013-03-12 23:19:00,47.7,46.3,30.08,SW,223,0.0,0.0,95,0.00,,---,0.00,VWS V14.01,2013-03-13 06:19:00,
2013-03-12 23:24:00,47.7,46.3,30.08,SW,223,0.0,0.0,95,0.00,,---,0.00,VWS V14.01,2013-03-13 06:24:00,
2013-03-12 23:29:00,47.7,46.3,30.08,SW,223,0.0,0.0,95,0.00,,---,0.00,VWS V14.01,2013-03-13 06:29:00,
2013-03-12 23:34:00,47.9,46.5,30.07,SW,223,0.0,0.0,95,0.00,,---,0.00,VWS V14.01,2013-03-13 06:34:00,
2013-03-12 23:39:00,47.7,46.3,30.07,SW,223,0.0,0.0,95,0.00,,---,0.00,VWS V14.01,2013-03-13 06:39:00,
2013-03-12 23:44:00,47.6,46.2,30.07,SW,223,0.0,0.0,95,0.00,,---,0.00,VWS V14.01,2013-03-13 06:44:00,
2013-03-12 23:49:00,47.3,45.9,30.07,SW,223,0.0,0.0,95,0.00,,---,0.00,VWS V14.01,2013-03-13 06:49:00,
2013-03-12 23:54:00,47.1,46.0,30.07,SW,223,0.0,0.0,96,0.00,,---,0.00,VWS V14.01,2013-03-13 06:54:00,
2013-03-12 23:59:00,47.1,46.0,30.07,SW,223,0.0,0.0,96,0.00,,---,0.00,VWS V14.01,2013-03-13 06:59:00,